Location: Boulin
(43.2500°N, 0.1333°E)
Time: 05:20:31
(UTC+00:00)

Cosmos 1933 - Pass Details

Date: 23 March 2026
Orbit: 507 x 515 km, 82.5° (Epoch: 15 April)

Event Time Altitude Azimuth Distance (km) Brightness Sun altitude
Exits shadow 04:17:11 32° 194° (SSW) 890 4.1 -18.7°
Maximum altitude 04:18:51 81° 278° (W) 525 3.0 -18.5°
Drops below altitude 10° 04:22:41 10° 6° (N) 1,744 6.2 -17.8°
Sets 04:24:49 0° 8° (N) 2,634 7.2 -17.4°
